Stations météo

réclame
Mon MeteoGroup
Harsfjarden, Suède (2489): Température de l'air & dewpoint: 17.05.2018 18:00:00 - 23.05.2018 18:00:00 (CEST)Harsfjarden, Suède (2489): Vitesse du vent & gusts: 17.05.2018 18:00:00 - 23.05.2018 18:00:00 (CEST)Harsfjarden, Suède (2489): Direction du vent: 17.05.2018 18:00:00 - 23.05.2018 18:00:00 (CEST)Harsfjarden, Suède (2489): reduced air pressure: 17.05.2018 18:00:00 - 23.05.2018 18:00:00 (CEST)Harsfjarden, Suède (2489): visibility: 17.05.2018 18:00:00 - 23.05.2018 18:00:00 (CEST)Harsfjarden, Suède (2489): Quantités de précipitations: 17.05.2018 18:00:00 - 23.05.2018 18:00:00 (CEST)
Date & Time tt [°C] td [°C] ff [km/h] ff [knt] fx [km/h] fx [knt] dd ppp [hPa] vv [km] rr [mm]
23.05.2018 18:00:00 16,8 12,1 7 4 11 6 E 1026,2 35 0,0
23.05.2018 17:00:00 16,9 11,8 7 4 11 6 SE 1026,1 30 0,0
23.05.2018 16:00:00 17,1 11,6 7 4 18 10 SE 1025,9 35 0,0
23.05.2018 15:00:00 17,3 11,6 11 6 25 14 ESE 1025,3 30 0,0
23.05.2018 14:00:00 21,7 10,5 14 8 25 14 N 1024,4 35 0,0
23.05.2018 13:00:00 21,6 10,4 14 8 29 16 NNW 1023,8 27 0,0
23.05.2018 12:00:00 21,0 10,5 14 8 22 12 N 1023,3 30 0,0
23.05.2018 11:00:00 20,1 10,5 11 6 22 12 NNW 1022,8 35 0,0
23.05.2018 10:00:00 19,1 10,1 11 6 18 10 NW 1022,3 30 0,0
23.05.2018 09:00:00 18,4 10,0 7 4 18 10 NNE 1021,7 35 0,0
23.05.2018 08:00:00 17,1 9,3 11 6 18 10 NW 1021,1 35 0,0
23.05.2018 07:00:00 16,3 10,4 4 2 7 4 WSW 1020,6 35 0,0
23.05.2018 06:00:00 11,1 8,8 0 0 4 2 N 1020,1 45 0,0
23.05.2018 05:00:00 8,5 7,4 4 2 4 2 N 1019,7 45 0,0
23.05.2018 04:00:00 8,0 6,8 4 2 4 2 N 1019,6 45 0,0
23.05.2018 03:00:00 7,9 6,8 0 0 4 2 N 1019,5 45 0,0
23.05.2018 02:00:00 8,4 7,0 0 0 4 2 N 1019,4 45 0,0
23.05.2018 01:00:00 9,4 7,2 4 2 4 2 N 1019,2 50 0,0
23.05.2018 00:00:00 10,1 7,3 4 2 4 2 NNW 1019,1 45 0,0
22.05.2018 23:00:00 11,9 8,2 0 0 4 2 N 1019,0 45 0,0
22.05.2018 22:00:00 13,0 7,9 4 2 7 4 SSW 1019,1 45 0,0
22.05.2018 21:00:00 14,6 9,6 0 0 7 4 N 1018,8 45 0,0
22.05.2018 20:00:00 15,3 10,3 4 2 11 6 E 1018,8 45 0,0
22.05.2018 19:00:00 16,9 9,3 4 2 14 8 ENE 1018,9 45 0,0
22.05.2018 18:00:00 16,7 9,1 7 4 14 8 E 1019,1 40 0,0
22.05.2018 17:00:00 18,1 10,9 7 4 14 8 E 1019,4 45 0,0
22.05.2018 16:00:00 18,2 10,8 7 4 14 8 E 1019,7 40 0,0
22.05.2018 15:00:00 17,8 10,7 11 6 14 8 E 1020,1 35 0,0
22.05.2018 14:00:00 17,5 10,8 11 6 18 10 E 1020,4 40 0,0
22.05.2018 13:00:00 18,2 10,1 11 6 18 10 E 1020,5 40 0,0
22.05.2018 12:00:00 18,8 8,4 7 4 14 8 E 1021,1 35 0,0
22.05.2018 11:00:00 19,6 7,7 4 2 11 6 ESE 1021,6 30 0,0
22.05.2018 10:00:00 17,9 7,9 7 4 7 4 ESE 1022,0 35 0,0
22.05.2018 09:00:00 16,1 9,5 4 2 7 4 SE 1022,3 35 0,0
22.05.2018 08:00:00 14,1 10,3 0 0 4 2 N 1022,6 40 0,0
22.05.2018 07:00:00 11,4 10,5 4 2 4 2 NE 1022,9 35 0,0
22.05.2018 06:00:00 8,0 7,6 4 2 4 2 N 1023,2 28 0,0
22.05.2018 05:00:00 6,4 6,0 4 2 4 2 N 1023,3 18 0,0
22.05.2018 04:00:00 6,5 6,1 4 2 4 2 N 1023,7 23 0,0
22.05.2018 03:00:00 7,0 6,6 4 2 4 2 N 1023,9 28 0,0
22.05.2018 02:00:00 7,6 7,2 4 2 4 2 NNW 1024,1 27 0,0
22.05.2018 01:00:00 8,7 8,3 4 2 4 2 N 1024,3 35 0,0
22.05.2018 00:00:00 9,5 8,6 4 2 4 2 N 1024,6 45 0,0
21.05.2018 23:00:00 10,2 8,9 0 0 4 2 N 1025,2 40 0,0
21.05.2018 22:00:00 12,1 10,0 0 0 7 4 N 1025,3 45 0,0
21.05.2018 21:00:00 14,1 9,7 0 0 4 2 N 1025,1 45 0,0
21.05.2018 20:00:00 17,2 10,1 0 0 11 6 N 1025,1 40 0,0
21.05.2018 19:00:00 18,4 10,5 7 4 14 8 S 1025,3 45 0,0
21.05.2018 18:00:00 19,7 9,3 7 4 14 8 S 1025,6 40 0,0
21.05.2018 17:00:00 20,0 9,0 11 6 18 10 S 1026,0 40 0,0
21.05.2018 16:00:00 20,9 9,8 11 6 14 8 S 1026,7 35 0,0
21.05.2018 15:00:00 21,4 9,6 11 6 18 10 S 1026,9 30 0,0
21.05.2018 14:00:00 21,4 12,3 14 8 22 12 S 1027,4 30 0,0
21.05.2018 13:00:00 21,0 11,9 14 8 18 10 S 1027,6 35 0,0
21.05.2018 12:00:00 22,3 12,5 11 6 18 10 S 1027,9 35 0,0
21.05.2018 11:00:00 21,1 12,2 14 8 18 10 S 1028,1 35 0,0
21.05.2018 10:00:00 19,8 10,2 7 4 11 6 S 1028,2 40 0,0
21.05.2018 09:00:00 17,7 10,1 7 4 11 6 SE 1028,1 40 0,0
21.05.2018 08:00:00 16,0 11,2 0 0 4 2 N 1028,2 45 0,0
21.05.2018 07:00:00 13,1 10,6 4 2 4 2 SE 1028,4 45 0,0
21.05.2018 06:00:00 10,7 8,6 0 0 4 2 N 1028,1 45 0,0
21.05.2018 05:00:00 8,1 6,9 0 0 4 2 N 1027,8 40 0,0
21.05.2018 04:00:00 8,3 7,1 0 0 4 2 N 1027,5 45 0,0
21.05.2018 03:00:00 8,4 7,3 0 0 4 2 N 1027,2 45 0,0
21.05.2018 02:00:00 9,6 7,9 0 0 7 4 N 1027,1 45 0,0
21.05.2018 01:00:00 10,4 8,2 4 2 7 4 W 1026,9 45 0,0
21.05.2018 00:00:00 11,3 7,8 4 2 4 2 W 1026,8 45 0,0
20.05.2018 23:00:00 12,8 7,5 0 0 11 6 N 1026,7 45 0,0
20.05.2018 22:00:00 14,0 6,6 4 2 22 12 SW 1026,6 45 0,0
20.05.2018 21:00:00 16,2 6,6 14 8 25 14 SW 1026,3 45 0,0
20.05.2018 20:00:00 17,5 6,7 14 8 29 16 SW 1026,1 45 0,0
20.05.2018 19:00:00 18,9 6,0 18 10 29 16 SW 1025,8 35 0,0
20.05.2018 18:00:00 19,5 6,6 14 8 25 14 SSW 1026,0 45 0,0
20.05.2018 17:00:00 20,5 5,7 18 10 25 14 SSW 1026,4 45 0,0
20.05.2018 16:00:00 20,6 6,5 18 10 25 14 S 1026,6 35 0,0
20.05.2018 15:00:00 20,3 7,6 22 12 29 16 S 1026,5 40 0,0
20.05.2018 14:00:00 20,6 6,9 22 12 32 18 S 1026,6 35 0,0
20.05.2018 13:00:00 22,0 5,4 18 10 29 16 S 1026,5 40 0,0
20.05.2018 12:00:00 23,1 4,6 11 6 32 18 SW 1026,7 40 0,0
20.05.2018 11:00:00 22,3 4,8 11 6 25 14 WSW 1026,7 40 0,0
20.05.2018 10:00:00 21,1 5,8 14 8 25 14 W 1027,0 40 0,0
20.05.2018 09:00:00 20,3 5,9 11 6 18 10 W 1026,6 40 0,0
20.05.2018 08:00:00 18,4 6,9 11 6 18 10 WSW 1026,2 35 0,0
20.05.2018 07:00:00 16,1 6,8 7 4 25 14 W 1026,1 40 0,0
20.05.2018 06:00:00 13,6 5,2 11 6 25 14 WNW 1025,7 45 0,0
20.05.2018 05:00:00 11,1 5,0 7 4 14 8 W 1025,1 45 0,0
20.05.2018 04:00:00 9,9 4,3 4 2 14 8 W 1024,5 50 0,0
20.05.2018 03:00:00 10,5 4,2 7 4 14 8 W 1024,1 50 0,0
20.05.2018 02:00:00 10,1 4,0 7 4 11 6 W 1024,0 50 0,0
20.05.2018 01:00:00 10,2 4,1 7 4 11 6 W 1023,9 50 0,0
20.05.2018 00:00:00 9,7 3,4 7 4 11 6 W 1023,8 50 0,0
19.05.2018 23:00:00 10,1 2,7 4 2 14 8 W 1023,7 50 0,0
19.05.2018 22:00:00 11,0 2,3 7 4 11 6 WSW 1023,6 50 0,0
19.05.2018 21:00:00 12,1 1,7 7 4 18 10 WSW 1023,3 45 0,0
19.05.2018 20:00:00 14,4 2,0 11 6 22 12 SW 1023,0 45 0,0
19.05.2018 19:00:00 15,5 3,0 14 8 25 14 SW 1023,3 45 0,0
19.05.2018 18:00:00 15,6 4,0 14 8 25 14 SSW 1023,5 40 0,0
19.05.2018 17:00:00 15,3 2,8 22 12 25 14 S 1023,6 40 0,0
19.05.2018 16:00:00 15,5 2,6 18 10 25 14 S 1023,6 40 0,0
19.05.2018 15:00:00 15,5 3,3 18 10 25 14 S 1023,6 40 0,0
19.05.2018 14:00:00 15,8 3,2 18 10 22 12 S 1023,8 40 0,0
19.05.2018 13:00:00 15,3 3,7 18 10 25 14 S 1023,9 40 0,0
19.05.2018 12:00:00 17,2 6,1 11 6 18 10 SSE 1023,8 40 0,0
19.05.2018 11:00:00 17,0 2,2 7 4 18 10 SE 1023,8 40 0,0
19.05.2018 10:00:00 16,1 0,2 7 4 18 10 NE 1023,8 45 0,0
19.05.2018 09:00:00 14,9 1,8 11 6 18 10 NNW 1023,6 45 0,0
19.05.2018 08:00:00 13,6 2,8 7 4 14 8 N 1023,4 45 0,0
19.05.2018 07:00:00 11,3 3,8 7 4 18 10 N 1022,9 45 0,0
19.05.2018 06:00:00 8,3 2,7 11 6 18 10 NNW 1022,5 45 0,0
19.05.2018 05:00:00 6,3 1,4 14 8 18 10 NNW 1022,1 45 0,0
19.05.2018 04:00:00 6,2 1,3 11 6 14 8 NNW 1021,8 50 0,0
19.05.2018 03:00:00 5,2 1,1 11 6 14 8 NNW 1021,6 50 0,0
19.05.2018 02:00:00 5,1 1,0 7 4 11 6 NNW 1021,3 50 0,0
19.05.2018 01:00:00 5,3 1,2 4 2 7 4 NNW 1021,2 50 0,0
19.05.2018 00:00:00 6,0 1,3 4 2 7 4 NNW 1021,1 50 0,0
18.05.2018 23:00:00 6,9 1,6 4 2 7 4 NNW 1021,0 50 0,0
18.05.2018 22:00:00 9,0 2,3 4 2 11 6 NNW 1020,8 45 0,0
18.05.2018 21:00:00 12,6 1,3 7 4 25 14 NNE 1020,3 50 0,0
18.05.2018 20:00:00 14,6 1,1 11 6 29 16 NNE 1019,8 45 0,0
18.05.2018 19:00:00 15,1 -0,3 18 10 29 16 N 1019,5 45 0,0
18.05.2018 18:00:00 15,6 -1,9 18 10 32 18 NNE 1019,3 40 0,0
18.05.2018 17:00:00 16,3 -1,3 18 10 32 18 N 1019,1 40 0,0
18.05.2018 16:00:00 16,5 -2,1 18 10 36 19 N 1018,9 40 0,0
18.05.2018 15:00:00 16,6 -2,0 22 12 36 19 NNE 1018,8 40 0,0
18.05.2018 14:00:00 16,4 -1,2 22 12 40 21 N 1018,5 40 0,0
18.05.2018 13:00:00 16,0 0,5 22 12 40 21 NNE 1018,6 35 0,0
18.05.2018 12:00:00 15,4 0,8 22 12 36 19 NNW 1018,5 40 0,0
18.05.2018 11:00:00 15,3 2,1 18 10 32 18 N 1018,3 35 0,0
18.05.2018 10:00:00 14,4 2,6 18 10 36 19 N 1017,9 35 0,0
18.05.2018 09:00:00 13,8 2,7 14 8 36 19 N 1017,5 35 0,0
18.05.2018 08:00:00 12,3 2,2 22 12 32 18 N 1017,0 35 0,0
18.05.2018 07:00:00 11,4 1,9 14 8 32 18 N 1016,5 45 0,0
18.05.2018 06:00:00 10,4 1,5 14 8 29 16 N 1015,9 45 0,0
18.05.2018 05:00:00 9,8 1,4 14 8 25 14 N 1015,7 50 0,0
18.05.2018 04:00:00 9,8 1,4 14 8 29 16 N 1015,6 50 0,0
18.05.2018 03:00:00 10,4 1,2 18 10 29 16 N 1015,2 45 0,0
18.05.2018 02:00:00 10,5 1,6 18 10 32 18 N 1015,2 45 0,0
18.05.2018 01:00:00 10,1 2,0 18 10 32 18 N 1015,6 50 0,0
18.05.2018 00:00:00 10,3 2,2 14 8 29 16 N 1015,8 50 0,0
17.05.2018 23:00:00 10,7 2,3 14 8 29 16 N 1015,8 50 0,0
17.05.2018 22:00:00 11,4 3,2 18 10 32 18 N 1015,6 50 0,0
17.05.2018 21:00:00 11,9 4,8 14 8 29 16 N 1015,5 45 0,0
17.05.2018 20:00:00 13,0 5,7 14 8 25 14 N 1015,1 45 0,0
17.05.2018 19:00:00 13,7 6,3 14 8 29 16 NNE 1014,9 45 0,0
17.05.2018 18:00:00 13,6 6,2 14 8 32 18 NNE 1014,9 45 0,0

tt = Température de l'air
td = dewpoint
ff = Vitesse du vent
fx = gusts
dd = Direction du vent
ppp = reduced air pressure
vv = visibility
rr = Quantités de précipitations

stations d'obs. à proximité